Weather History for Plainview, TX

Change the Weather History Date:

Monday, April 29, 2013

  Actual Average Record
Temperature  
Mean Temperature 72 °F -  
Max Temperature 90 °F 75 °F 95 °F (1910)
Min Temperature 54 °F 49 °F 35 °F (1912)
Cooling Degree Days 7    
Growing Degree Days 22 (Base 50)    
Moisture  
Dew Point 36 °F    
Average Humidity 32    
Maximum Humidity 64    
Minimum Humidity 11    
Precipitation  
Precipitation 0.00 in - - ()
Sea Level Pressure  
Sea Level Pressure 29.81 in    
Wind  
Wind Speed 13 mph (SSW)    
Max Wind Speed 24 mph    
Max Gust Speed 31 mph    
Visibility 10 miles    
Events      
Averages and records for this station are not official NWS values.
T = Trace of Precipitation, MM = Missing Value Source: NWS Daily Summary

Daily Weather History Graph

Daily Weather History Graph

Search for Another Location

Airport:

Trip Planner

Search our weather history database for the weather conditions in past years. The results will help you decide how hot, cold, wet, or windy it might be!

Date:

Astronomy

Apr. 29, 2013 Rise Set
Actual Time 6:59 AM CDT 8:29 PM CDT
Civil Twilight 6:32 AM CDT 8:56 PM CDT
Nautical Twilight 6:00 AM CDT 9:28 PM CDT
Astronomical Twilight 5:27 AM CDT 10:01 PM CDT
Moon No Moon Rise 10:26 AM CDT (4/29)
Length of Visible Light 14h 23m
Length of Day
13h 30m
Waning Gibbous, 80% of the Moon is Illuminated
Apr 29
Waning Gibbous
May 2
Last Quarter
May 9
New
May 17
First Quarter
May 24
Full

Hourly Weather History & Observations

Time (CDT) Temp. Dew Point Humidity Pressure Visibility Wind Dir Wind Speed Gust Speed Precip Events Conditions
12:15 AM 59.9 °F 34.5 °F 39% 29.87 in 10.0 mi South 9.2 mph - N/A   Clear
12:35 AM 59.9 °F 34.3 °F 38% 29.88 in 10.0 mi South 9.2 mph - N/A   Clear
1:15 AM 60.4 °F 32.9 °F 36% 29.88 in 10.0 mi SSW 10.4 mph - N/A   Clear
1:35 AM 59.9 °F 33.1 °F 36% 29.88 in 10.0 mi SSW 8.1 mph - N/A   Clear
1:55 AM 57.6 °F 32.5 °F 39% 29.88 in 10.0 mi SSW 6.9 mph - N/A   Clear
2:15 AM 57.4 °F 33.6 °F 41% 29.88 in 10.0 mi SW 6.9 mph - N/A   Clear
2:35 AM 55.2 °F 34.0 °F 45% 29.88 in 10.0 mi SW 8.1 mph - N/A   Clear
2:55 AM 57.0 °F 36.5 °F 46% 29.88 in 10.0 mi SW 9.2 mph - N/A   Clear
3:15 AM 57.4 °F 35.8 °F 44% 29.88 in 10.0 mi SSW 10.4 mph - N/A   Clear
3:35 AM 59.7 °F 37.9 °F 44% 29.88 in 10.0 mi SSW 12.7 mph - N/A   Clear
3:55 AM 57.6 °F 37.8 °F 48% 29.88 in 10.0 mi SSW 12.7 mph - N/A   Clear
4:15 AM 57.4 °F 38.7 °F 50% 29.88 in 10.0 mi SSW 12.7 mph - N/A   Clear
4:35 AM 57.4 °F 39.4 °F 51% 29.88 in 10.0 mi SW 11.5 mph - N/A   Clear
4:55 AM 56.3 °F 39.4 °F 53% 29.88 in 10.0 mi SW 10.4 mph - N/A   Clear
5:15 AM 55.2 °F 39.4 °F 55% 29.88 in 10.0 mi SW 10.4 mph - N/A   Clear
5:35 AM 54.9 °F 39.6 °F 56% 29.88 in 10.0 mi SW 9.2 mph - N/A   Clear
5:55 AM 54.9 °F 40.3 °F 58% 29.88 in 10.0 mi SW 9.2 mph - N/A   Clear
6:15 AM 54.9 °F 41.0 °F 60% 29.88 in 10.0 mi SW 11.5 mph - N/A   Clear
6:35 AM 54.9 °F 41.9 °F 62% 29.88 in 10.0 mi SW 10.4 mph - N/A   Clear
6:55 AM 54.9 °F 42.6 °F 63% 29.89 in 10.0 mi SW 11.5 mph - N/A   Clear
7:15 AM 54.9 °F 42.8 °F 64% 29.89 in 10.0 mi SW 9.2 mph - N/A   Clear
7:35 AM 54.9 °F 42.4 °F 63% 29.89 in 10.0 mi SW 10.4 mph - N/A   Clear
7:55 AM 55.8 °F 42.6 °F 61% 29.89 in 10.0 mi SW 11.5 mph - N/A   Clear
8:15 AM 57.4 °F 43.0 °F 59% 29.89 in 10.0 mi SW 10.4 mph - N/A   Clear
8:35 AM 59.9 °F 43.7 °F 55% 29.89 in 10.0 mi SW 16.1 mph 19.6 mph N/A   Clear
8:55 AM 61.5 °F 44.1 °F 53% 29.89 in 10.0 mi SW 15.0 mph 24.2 mph N/A   Clear
9:15 AM 63.9 °F 44.1 °F 49% 29.89 in 10.0 mi SW 16.1 mph 20.7 mph N/A   Clear
9:35 AM 67.5 °F 44.8 °F 44% 29.88 in 10.0 mi SW 16.1 mph 24.2 mph N/A   Clear
9:55 AM 70.0 °F 44.1 °F 39% 29.88 in 10.0 mi SW 20.7 mph 26.5 mph N/A   Clear
10:15 AM 70.7 °F 41.7 °F 35% 29.88 in 10.0 mi SW 17.3 mph 26.5 mph N/A   Clear
10:35 AM 75.2 °F 43.3 °F 32% 29.88 in 10.0 mi SW 18.4 mph 23.0 mph N/A   Clear
10:55 AM 75.7 °F 41.2 °F 29% 29.87 in 10.0 mi SW 17.3 mph 24.2 mph N/A   Clear
11:15 AM 77.5 °F 39.6 °F 26% 29.87 in 10.0 mi SSW 24.2 mph 27.6 mph N/A   Clear
11:35 AM 80.1 °F 39.7 °F 24% 29.86 in 10.0 mi SW 17.3 mph 26.5 mph N/A   Clear
11:55 AM 80.1 °F 37.9 °F 22% 29.86 in 10.0 mi SW 18.4 mph 27.6 mph N/A   Clear
12:15 PM 81.5 °F 36.9 °F 20% 29.86 in 10.0 mi SW 19.6 mph 25.3 mph N/A   Clear
12:35 PM 82.6 °F 34.7 °F 18% 29.85 in 10.0 mi SW 16.1 mph 25.3 mph N/A   Clear
12:55 PM 83.3 °F 34.9 °F 18% 29.84 in 10.0 mi SW 17.3 mph 25.3 mph N/A   Clear
1:15 PM 83.3 °F 33.3 °F 17% 29.83 in 10.0 mi SSW 23.0 mph 31.1 mph N/A   Clear
1:35 PM 84.0 °F 31.5 °F 15% 29.82 in 10.0 mi SSW 16.1 mph 25.3 mph N/A   Clear
1:55 PM 84.4 °F 32.0 °F 15% 29.81 in 10.0 mi SSW 16.1 mph 24.2 mph N/A   Clear
2:15 PM 87.6 °F 32.7 °F 14% 29.80 in 10.0 mi SSW 18.4 mph 27.6 mph N/A   Clear
2:35 PM 87.8 °F 32.5 °F 14% 29.79 in 10.0 mi South 15.0 mph 20.7 mph N/A   Clear
2:55 PM 87.8 °F 31.3 °F 13% 29.78 in 10.0 mi SSW 13.8 mph 26.5 mph N/A   Clear
3:15 PM 87.8 °F 30.6 °F 13% 29.78 in 10.0 mi SW 11.5 mph 27.6 mph N/A   Clear
3:35 PM 90.1 °F 31.1 °F 12% 29.76 in 10.0 mi South 16.1 mph 24.2 mph N/A   Clear
3:55 PM 89.4 °F 28.8 °F 11% 29.75 in 10.0 mi South 11.5 mph 27.6 mph N/A   Clear
4:15 PM 90.1 °F 30.2 °F 12% 29.74 in 10.0 mi SW 11.5 mph 18.4 mph N/A   Clear
4:35 PM 88.0 °F 31.8 °F 13% 29.73 in 7.0 mi South 19.6 mph 31.1 mph N/A   Clear
4:55 PM 90.1 °F 32.9 °F 13% 29.73 in 10.0 mi South 19.6 mph 28.8 mph N/A   Clear
5:15 PM 89.4 °F 32.0 °F 13% 29.72 in 10.0 mi South 19.6 mph 28.8 mph N/A   Clear
5:35 PM 88.0 °F 31.6 °F 13% 29.72 in 10.0 mi South 21.9 mph 28.8 mph N/A   Clear
5:55 PM 87.8 °F 31.6 °F 13% 29.71 in 10.0 mi South 23.0 mph - N/A   Clear
6:15 PM 87.8 °F 31.5 °F 13% 29.71 in 10.0 mi South 18.4 mph 26.5 mph N/A   Clear
6:35 PM 85.8 °F 30.2 °F 13% 29.70 in 10.0 mi South 17.3 mph 25.3 mph N/A   Clear
6:55 PM 84.6 °F 29.3 °F 14% 29.70 in 10.0 mi South 20.7 mph 25.3 mph N/A   Clear
7:15 PM 83.8 °F 29.1 °F 14% 29.70 in 10.0 mi South 20.7 mph 24.2 mph N/A   Clear
7:35 PM 82.6 °F 29.3 °F 14% 29.69 in 10.0 mi South 18.4 mph - N/A   Clear
7:55 PM 81.5 °F 29.3 °F 15% 29.69 in 10.0 mi South 16.1 mph - N/A   Clear
8:15 PM 80.1 °F 29.8 °F 16% 29.69 in 10.0 mi South 15.0 mph - N/A   Clear
8:35 PM 77.5 °F 31.5 °F 19% 29.70 in 10.0 mi South 13.8 mph - N/A   Clear
8:55 PM 75.2 °F 31.8 °F 20% 29.70 in 10.0 mi South 13.8 mph - N/A   Clear
9:15 PM 75.2 °F 33.4 °F 22% 29.71 in 10.0 mi South 13.8 mph - N/A   Clear
9:35 PM 72.1 °F 33.1 °F 24% 29.72 in 10.0 mi SSE 12.7 mph - N/A   Clear
9:55 PM 70.0 °F 32.5 °F 25% 29.72 in 10.0 mi South 12.7 mph - N/A   Clear
10:35 PM 70.0 °F 34.7 °F 27% 29.73 in 10.0 mi South 15.0 mph - N/A   Clear
10:55 PM 70.0 °F 34.9 °F 28% 29.73 in 10.0 mi South 13.8 mph - N/A   Clear
11:15 PM 70.0 °F 35.6 °F 28% 29.73 in 10.0 mi South 13.8 mph - N/A   Clear
11:35 PM 67.5 °F 34.0 °F 29% 29.73 in 10.0 mi South 15.0 mph - N/A   Clear
11:55 PM 67.5 °F 34.7 °F 30% 29.74 in 10.0 mi South 13.8 mph - N/A   Clear